Theta_e
350 349 347 345 345 344 342 342 342 343 342 342 343 342 341 342 340 342 346 348 349 348 347 348 347 352 354 354 354 354 355 356 357 356 356 355 354 355 355 354 353 353 353 353 354 352 351 349 350 352 354 354 353 352 355 353 352 349 350 347 346 344 341 338 335 337 340 341 344 347 350 352 351 348 348 349 350 351 353 351 351 350 350 349 349
349 350 349 347 344 344 344 342 342 342 341 340 341 343 343 343 342 342 343 346 348 349 348 347 348 349 353 353 353 354 354 355 357 356 355 355 355 356 355 354 354 353 352 352 352 354 351 349 350 350 352 354 353 353 353 353 353 351 349 350 348 348 346 343 340 338 339 340 343 346 349 353 351 346 349 350 350 350 351 352 353 352 352 352 351
350 351 350 348 346 345 345 344 342 341 341 340 339 340 344 345 345 343 343 344 347 348 348 348 348 347 351 353 353 353 354 355 356 356 355 354 354 354 355 354 354 353 352 352 352 353 352 351 351 350 352 351 351 352 353 352 352 352 351 351 350 350 350 347 343 340 340 342 342 345 346 349 348 351 351 351 351 351 351 353 355 356 356 356 355
350 350 350 349 348 346 345 345 343 341 340 340 339 339 340 344 347 346 345 345 345 346 347 348 348 348 348 351 352 353 353 354 355 356 356 355 354 354 354 353 353 353 353 352 352 352 352 352 353 352 351 351 350 350 351 351 350 350 350 350 351 351 352 351 348 345 344 343 342 347 347 346 350 351 352 353 353 354 354 356 356 356 357 358 357
351 350 350 349 349 347 346 346 344 342 341 340 339 339 339 339 343 346 346 346 346 345 344 345 347 348 348 348 350 352 353 354 353 355 356 356 355 355 354 353 353 354 353 353 358 353 352 352 352 352 351 351 350 350 350 349 350 349 349 349 351 352 352 352 352 349 346 345 345 345 348 348 349 352 352 353 353 352 351 353 356 357 357 358 359
352 351 351 350 349 348 347 346 345 344 343 341 340 339 339 338 338 342 345 345 345 346 344 342 344 348 349 348 349 350 352 353 353 353 354 356 355 355 355 354 353 353 354 354 354 355 353 353 353 352 351 350 350 350 351 350 350 349 348 347 349 351 351 351 351 351 349 349 347 347 341 346 345 348 350 350 352 352 352 351 352 353 351 353 355
353 352 352 351 351 349 348 347 346 346 345 343 342 340 339 339 338 338 341 343 344 344 346 344 343 344 349 350 349 349 350 351 352 353 353 353 355 355 354 354 353 353 353 354 354 355 355 354 354 353 351 350 350 349 350 350 351 350 350 349 348 347 348 348 349 348 348 347 345 345 345 346 347 349 349 350 350 350 350 350 349 346 348 349 352
354 353 353 352 352 352 351 350 348 347 346 345 343 341 340 339 339 338 339 340 341 342 344 345 344 343 346 349 351 351 350 350 350 352 352 352 353 354 354 354 353 353 352 353 354 355 355 355 355 354 354 352 351 350 350 350 350 350 351 350 350 348 347 347 347 347 346 346 345 346 343 345 345 349 351 346 346 344 347 346 347 348 345 345 347
354 353 353 353 353 354 354 354 352 350 349 347 345 343 341 340 340 339 339 339 341 341 342 344 345 343 343 347 350 352 351 350 351 351 351 351 352 353 354 354 353 353 353 353 352 353 354 356 356 356 356 362 360 357 356 356 351 349 350 350 350 349 348 348 347 345 344 345 345 345 345 348 348 348 348 345 342 345 344 346 346 344 341 345 345
353 354 353 354 355 355 356 355 354 353 351 349 347 345 344 342 341 340 340 340 340 341 341 342 344 344 343 343 347 351 352 353 349 340 344 352 351 353 354 354 353 353 352 352 353 353 353 354 356 365 364 362 355 352 349 353 359 354 351 350 350 350 349 348 347 347 346 345 344 344 345 346 347 347 347 347 347 345 344 341 342 341 339 342 341
354 354 354 355 356 356 356 356 355 354 353 351 350 348 346 345 343 342 342 341 341 341 342 341 342 344 345 343 343 346 351 353 341 334 335 340 350 351 352 353 353 353 352 352 351 352 353 353 353 359 365 369 360 349 346 345 346 350 353 357 359 352 349 348 348 347 346 346 345 345 344 346 348 350 349 350 347 346 342 338 340 339 339 339 341
354 354 355 356 356 356 356 356 356 355 354 352 351 350 349 347 345 344 343 343 343 343 342 341 342 343 345 345 344 345 347 342 335 333 334 333 341 352 351 352 353 353 353 352 352 352 352 353 353 354 355 357 357 357 351 345 341 342 344 346 350 353 354 352 349 347 346 347 347 348 347 348 349 349 350 347 345 341 338 337 340 341 340 339 335
353 354 355 356 357 357 357 356 356 355 354 354 353 351 349 348 347 345 344 344 344 343 342 342 342 343 344 345 345 346 346 338 332 331 332 332 332 344 351 351 351 352 352 353 352 352 351 351 351 353 354 364 364 358 355 354 345 338 339 342 346 345 340 341 346 353 350 349 348 348 349 349 349 351 347 347 344 342 337 340 338 340 339 339 339
352 353 354 353 353 355 356 356 355 355 355 354 353 352 350 349 348 348 347 346 345 344 344 343 342 342 344 345 346 348 348 339 329 327 328 329 331 336 351 351 351 351 351 352 353 353 352 351 351 351 352 354 355 355 354 353 352 351 348 345 345 348 346 340 338 342 348 353 351 350 351 350 351 350 348 344 342 340 340 340 338 340 340 342 340
351 352 352 350 350 351 352 354 355 355 355 354 353 352 351 350 349 349 348 346 345 345 344 343 343 343 344 345 346 348 350 336 327 325 324 325 328 333 350 352 351 351 351 351 352 352 353 353 352 351 351 351 352 354 352 352 351 350 348 347 346 346 346 347 348 348 348 350 350 351 351 348 347 347 346 344 343 345 346 346 347 345 341 340 340
349 350 350 351 351 351 351 352 354 355 354 353 353 352 352 351 349 349 348 347 346 347 347 346 344 344 344 345 345 346 350 333 327 324 323 323 327 340 348 351 351 351 350 351 351 352 352 352 352 352 351 351 354 347 353 352 350 349 347 347 346 346 346 350 340 344 351 350 350 350 350 350 344 350 346 345 345 346 348 345 344 341 339 338 338
348 348 350 351 352 352 351 351 353 354 354 353 352 352 352 351 351 351 348 347 345 346 347 347 347 346 345 345 346 346 348 336 325 322 322 322 326 343 347 350 351 351 350 350 351 352 352 352 351 352 352 351 347 335 336 353 349 348 347 346 347 346 347 349 339 332 333 333 333 335 335 335 333 331 331 333 344 345 345 341 340 339 339 337 335
348 348 348 350 351 351 351 351 352 354 354 353 352 352 353 352 351 351 349 347 346 346 347 348 348 348 346 346 347 347 348 339 322 321 320 321 329 345 348 349 350 351 351 351 350 350 352 362 361 352 351 351 340 332 331 341 347 348 348 347 347 347 348 351 353 349 329 328 330 331 331 331 332 333 334 330 333 344 348 344 341 339 342 338 337
348 348 349 349 350 350 351 351 352 354 354 354 354 353 352 352 352 352 350 349 348 347 348 348 348 349 349 348 347 348 350 341 320 321 320 319 328 346 349 349 349 350 351 351 351 351 350 357 362 356 352 348 335 331 330 337 345 346 347 347 347 347 350 352 354 355 351 347 348 345 345 341 342 341 341 335 337 348 348 348 343 343 342 339 338
349 350 350 350 350 349 349 351 352 354 354 354 354 354 354 354 353 351 350 350 349 348 348 348 348 349 350 350 349 349 350 351 336 318 319 317 320 345 350 349 349 350 351 351 351 350 351 351 351 338 333 333 330 327 326 325 343 347 347 346 346 347 352 353 355 356 355 354 352 348 348 343 343 342 341 340 341 349 346 346 346 345 343 339 339
348 349 350 350 349 349 349 350 352 354 355 355 355 355 355 354 353 352 350 350 349 348 348 348 348 349 349 350 350 349 351 351 344 318 316 316 317 327 349 350 350 351 351 350 351 350 350 351 352 341 330 327 325 323 321 321 329 347 348 347 348 348 350 350 354 367 355 351 348 345 344 342 342 342 341 340 341 344 345 344 345 345 344 341 338
347 348 348 349 349 349 349 349 352 354 356 356 355 355 355 355 354 353 352 350 349 348 348 347 348 348 349 350 350 350 349 344 351 321 317 315 315 316 344 351 351 352 351 351 351 351 351 350 350 342 328 323 321 319 317 318 321 339 348 333 333 334 347 351 351 351 352 349 346 342 342 342 342 342 342 342 343 344 346 345 344 346 347 346 341
346 346 347 348 349 349 350 349 349 353 355 357 355 354 355 355 355 354 352 351 349 348 348 347 347 347 348 349 350 351 351 349 335 336 317 314 313 314 322 340 336 351 352 350 350 351 352 352 353 342 328 321 317 316 316 316 321 330 325 325 326 330 346 350 350 350 346 346 345 343 342 343 343 343 343 343 345 346 347 347 345 346 346 345 337
356 349 346 347 347 348 349 350 350 352 354 356 356 355 354 354 354 354 353 351 349 348 348 347 347 346 346 347 349 351 351 351 337 328 327 313 313 313 314 320 330 345 352 352 352 353 352 352 348 333 324 318 316 316 316 318 328 320 317 321 326 335 345 349 350 350 346 344 343 343 344 345 345 344 344 344 345 347 348 347 345 346 341 340 340
360 359 354 349 347 347 348 349 350 351 354 356 355 355 354 354 353 354 353 352 350 348 348 347 347 347 347 347 348 350 351 352 351 334 323 316 313 312 314 316 319 323 345 352 353 353 340 332 329 325 324 319 317 318 318 317 316 318 319 322 337 341 345 348 349 348 346 345 345 346 346 346 347 347 346 343 344 342 344 345 344 341 340 337 335
356 355 357 355 349 347 347 348 350 352 354 356 356 356 355 354 354 353 353 352 351 349 348 347 347 347 347 348 348 350 351 352 353 348 330 322 317 313 314 315 320 322 332 348 342 338 332 327 325 324 324 326 333 335 338 340 327 323 323 329 335 342 345 347 347 347 348 347 346 346 347 345 343 345 343 342 339 336 338 336 335 336 335 335 334
352 353 354 355 353 347 346 347 349 352 354 356 357 357 356 355 354 353 353 352 351 350 349 347 347 347 347 348 349 350 351 352 353 353 344 337 331 326 318 319 317 320 329 340 341 344 341 339 339 332 333 332 334 335 335 338 338 338 332 334 337 342 346 348 349 349 348 349 346 346 344 342 338 341 339 338 336 336 337 336 334 334 334 332 330
351 351 353 354 353 348 346 348 350 352 354 356 356 356 356 356 355 353 353 353 352 350 350 348 347 347 347 348 349 350 351 352 352 353 351 345 340 336 329 329 329 329 332 338 343 348 346 339 331 337 338 339 339 339 340 339 340 338 336 335 337 341 346 353 354 347 348 348 347 343 338 336 336 337 335 336 335 335 337 335 335 333 333 331 329
349 351 353 354 353 348 346 347 350 353 355 355 356 357 357 356 356 356 357 357 356 354 352 351 350 350 349 349 349 349 350 352 353 338 352 334 341 342 336 334 334 334 331 328 342 344 341 340 341 340 340 341 341 341 341 339 338 337 338 337 339 341 343 345 347 347 347 345 345 345 342 337 334 331 332 333 333 334 334 333 334 333 332 330 327
348 351 353 354 354 350 346 348 350 352 355 356 356 347 331 328 347 358 356 346 339 335 333 351 353 352 351 351 352 350 350 354 335 324 321 319 318 322 325 323 321 331 328 321 333 343 344 344 345 345 344 343 343 342 342 340 338 337 338 333 339 341 342 343 345 346 346 346 346 343 337 336 334 330 331 332 334 336 333 330 332 332 329 326 326
345 349 350 352 351 351 348 348 351 353 355 356 356 350 344 332 309 311 326 340 330 321 319 323 328 334 348 351 346 333 332 330 328 320 316 313 313 314 314 314 313 315 316 326 334 340 343 343 345 346 345 346 345 346 344 342 340 339 339 339 340 340 337 339 338 338 341 343 337 336 337 337 335 331 330 330 332 336 334 331 332 331 328 326 325
342 347 348 349 351 348 350 350 351 354 355 356 355 350 348 346 338 315 302 317 324 316 314 316 317 319 324 334 345 350 329 317 318 314 312 312 311 310 310 309 310 311 310 317 337 338 342 344 345 346 346 346 345 345 345 346 343 343 342 341 340 337 337 337 336 339 338 338 337 336 336 336 334 332 331 330 330 332 331 329 329 328 325 324 324
341 345 345 345 348 352 351 352 352 354 354 352 351 351 351 350 349 343 326 302 303 317 315 312 309 312 315 316 319 325 328 324 315 307 308 310 309 308 309 308 307 305 309 325 337 339 341 343 345 346 346 345 346 346 346 347 347 346 345 342 337 337 338 337 332 339 339 339 337 336 336 335 333 330 329 330 329 329 326 325 326 326 325 324 326
343 344 347 349 344 345 350 353 354 354 354 354 353 352 352 353 352 350 341 339 335 318 306 307 310 313 311 308 308 310 312 316 313 308 306 308 308 308 307 311 302 302 315 334 336 339 341 341 343 344 346 346 347 346 345 347 344 342 342 342 338 337 338 338 337 338 337 336 337 334 333 333 332 330 328 329 328 329 327 324 324 324 322 320 317
342 346 351 352 343 342 343 348 354 353 352 352 351 350 351 351 352 350 348 345 345 345 343 330 306 302 321 317 312 310 310 307 309 308 307 307 307 304 307 321 322 321 323 330 336 339 340 340 341 343 345 345 346 346 344 341 341 340 339 338 338 339 337 333 335 337 336 336 335 333 331 330 332 329 326 325 326 327 327 324 324 324 322 318 318
338 340 342 345 344 341 342 343 342 344 345 349 350 351 351 350 350 349 346 347 348 348 343 333 324 306 301 300 300 305 307 306 306 307 307 305 303 308 330 332 332 330 330 332 336 338 340 342 342 342 344 344 343 341 340 339 339 339 340 338 336 338 337 333 333 334 333 335 334 333 328 330 330 328 326 324 324 325 326 325 324 322 322 319 318
334 336 338 341 342 341 339 339 339 337 335 335 338 343 346 346 346 347 347 348 347 345 340 328 325 327 321 319 307 299 300 307 308 307 305 302 302 323 340 339 337 335 332 334 335 337 338 340 342 343 341 339 339 339 337 338 338 338 333 337 336 337 337 335 334 332 332 331 330 329 329 329 327 327 326 323 323 323 324 324 324 322 321 321 319
332 333 332 335 340 340 338 337 337 334 336 336 336 335 337 339 340 343 344 343 342 340 335 330 334 338 337 328 327 321 309 300 302 303 302 302 310 327 339 342 341 337 335 333 335 336 336 340 342 343 338 338 338 338 336 335 337 338 335 334 334 334 330 332 331 332 330 329 327 327 327 327 327 327 324 323 322 321 322 322 321 321 319 319 318
329 328 324 324 333 339 337 337 336 336 336 337 337 336 337 340 341 342 342 341 339 336 334 335 336 337 334 327 324 323 327 334 334 331 327 327 330 334 338 341 339 335 335 334 336 337 338 335 331 332 334 336 334 333 334 335 335 334 333 333 333 332 330 331 330 331 330 329 327 328 328 327 326 325 324 323 322 321 322 321 320 320 318 318 318
326 328 327 324 333 336 336 337 338 337 336 336 338 340 341 341 341 341 341 340 337 335 335 334 334 332 329 328 326 331 339 338 336 335 335 333 332 331 332 333 334 333 331 332 334 334 330 329 330 331 331 331 332 331 331 332 332 331 332 331 330 329 329 329 329 329 329 328 328 328 328 326 326 326 325 324 323 322 321 321 319 319 318 318 318
323 325 328 326 325 333 338 338 338 337 337 337 339 341 341 341 341 339 340 338 336 334 332 328 325 324 325 321 315 321 335 332 330 329 329 328 328 327 327 327 328 328 329 328 328 328 327 326 325 326 327 328 330 330 331 331 330 330 329 327 328 327 328 328 328 328 329 328 327 327 327 325 325 323 321 319 319 319 318 318 319 318 317 316 317
321 321 323 325 326 330 334 337 337 338 339 339 340 340 340 340 339 337 334 330 328 326 323 320 319 317 310 306 309 312 326 326 326 325 324 323 322 321 320 318 318 318 317 317 317 316 315 313 312 311 311 311 314 318 322 323 324 325 324 324 324 323 322 322 323 324 324 323 323 324 323 322 321 320 320 319 320 319 318 318 317 317 317 316 316
321 321 321 323 323 324 325 326 329 333 336 336 334 335 334 333 331 329 327 325 325 324 322 320 319 319 316 309 312 313 321 321 321 319 318 317 316 315 314 313 312 312 311 310 310 309 308 307 305 305 305 305 305 307 309 312 316 318 318 318 317 317 317 317 318 318 319 320 320 320 320 319 319 318 318 318 318 319 319 319 319 318 316 316 316
318 318 319 320 320 320 321 323 324 325 325 327 327 327 326 326 326 325 324 323 322 321 320 320 319 319 317 314 313 315 317 316 315 314 313 312 310 309 308 307 306 305 305 305 305 306 305 303 302 301 302 302 302 302 302 303 305 307 310 311 311 311 312 313 314 315 317 318 318 319 319 318 318 318 318 318 319 319 319 318 317 316 316 316 316
314 315 316 316 317 316 317 318 319 320 321 321 321 322 323 323 323 323 323 322 321 320 319 319 318 318 317 316 315 314 313 312 311 310 308 307 305 304 303 303 302 302 301 301 302 301 301 301 300 300 298 298 299 299 298 299 299 299 300 302 304 304 304 305 307 312 315 317 317 316 317 317 318 318 318 318 318 318 317 315 315 316 314 314 315
312 313 313 313 314 315 315 314 316 316 316 316 316 316 317 318 319 319 318 317 317 316 315 314 314 313 313 312 311 310 309 308 307 306 306 304 303 302 301 300 300 299 299 299 299 299 299 298 298 297 296 296 296 296 296 297 297 297 297 297 298 299 301 303 304 306 308 312 314 316 317 318 319 320 320 317 316 316 315 315 315 314 313 312 311
310 310 311 311 310 312 312 313 312 312 312 312 312 311 311 311 311 311 311 311 310 310 309 309 309 308 308 308 307 307 307 306 304 303 302 301 300 300 299 298 297 297 296 296 296 296 296 296 296 296 296 296 295 294 294 294 295 295 297 296 297 298 297 300 300 302 305 308 312 315 316 316 315 315 316 316 314 313 313 312 311 311 311 311 309
308 309 309 309 308 308 308 309 309 311 310 310 310 310 310 309 309 309 308 308 307 307 306 306 306 306 306 306 306 305 304 304 303 302 300 299 298 297 297 297 296 296 296 295 295 296 295 295 295 295 295 295 295 294 294 294 294 294 294 294 295 296 298 299 301 302 305 308 310 312 312 310 308 307 307 307 306 306 304 304 305 306 307 308 309
307 307 306 307 307 306 306 305 307 306 306 307 307 307 307 306 306 306 306 306 306 306 305 305 305 305 305 304 304 303 302 302 301 300 299 299 298 298 298 297 297 296 296 295 296 296 296 295 296 295 294 294 294 293 293 293 293 293 294 294 296 297 296 297 301 304 303 306 305 303 302 301 301 302 302 302 302 302 302 302 302 304 305 307 307
306 306 306 306 306 306 306 305 304 304 305 304 304 304 305 304 304 304 304 304 303 303 303 303 303 303 303 303 303 302 302 301 300 300 299 299 298 298 297 296 296 295 295 295 295 296 296 296 296 296 295 295 295 294 294 293 293 293 293 294 294 293 295 296 298 301 305 305 304 304 303 303 302 301 301 301 301 302 302 302 302 303 304 303 302
305 305 305 305 304 304 304 303 303 303 303 302 302 302 302 302 302 302 302 302 301 301 302 301 301 301 301 301 301 300 300 299 299 298 298 297 297 296 296 296 296 295 296 295 295 295 295 295 295 294 294 295 295 294 294 294 294 293 293 292 291 292 292 294 297 294 297 301 303 303 302 302 302 302 302 302 301 301 303 302 301 301 301 301 301
Wind_Speed
17 15 14 15 15 15 15 13 13 12 11 11 12 12 11 10 10 10 7 9 9 9 9 8 8 8 8 8 8 8 8 8 7 7 7 7 6 6 5 5 6 6 5 5 4 4 5 5 5 5 4 4 5 4 4 4 4 3 3 4 5 3 4 4 4 7 5 3 4 4 2 1 3 3 4 5 5 4 3 3 4 5 5 6 7
17 16 14 14 15 15 15 13 13 12 12 12 12 11 11 11 11 8 9 9 9 10 10 9 8 8 8 9 9 9 8 8 8 7 7 7 7 6 6 6 6 6 5 6 6 5 4 5 5 6 4 5 5 5 5 3 4 4 4 4 5 5 5 5 6 4 7 3 3 3 3 3 3 3 4 6 6 4 4 5 4 4 6 6 6
17 15 15 14 15 14 13 13 13 14 14 13 13 12 12 12 10 11 11 10 9 10 11 11 9 9 9 9 9 9 9 9 8 8 8 8 8 7 7 7 8 8 7 8 7 5 5 5 6 5 4 4 5 5 4 5 5 5 6 5 5 5 5 6 4 5 6 7 2 3 2 2 4 6 5 4 4 4 4 6 6 5 4 5 6
16 16 16 17 16 15 13 13 14 14 15 14 15 14 12 11 10 11 11 10 11 10 10 11 10 10 10 10 10 10 10 9 9 9 10 10 9 9 8 7 8 8 8 8 7 7 7 6 6 6 5 5 6 5 5 4 5 5 5 5 5 6 5 5 6 6 5 6 3 3 4 3 5 5 5 4 4 4 3 5 5 5 6 5 5
16 16 16 18 17 17 17 15 14 15 15 14 15 15 14 12 11 12 11 11 11 11 10 9 10 10 11 11 11 11 11 11 11 10 10 9 10 9 9 8 8 8 8 8 8 8 8 8 8 5 4 6 6 6 6 5 6 5 5 5 5 6 5 5 6 6 6 7 5 3 3 3 4 5 4 5 5 3 3 4 5 6 5 5 4
16 16 16 16 16 18 17 16 17 17 16 15 16 15 14 13 13 12 12 13 12 12 12 10 10 11 11 11 11 11 11 11 11 11 11 10 9 9 9 9 9 9 8 8 8 8 8 9 8 6 6 6 7 6 6 7 6 6 6 6 6 5 5 6 5 5 6 7 6 5 3 5 4 4 4 3 5 6 4 4 4 4 2 4 4
16 16 16 17 16 17 17 17 16 16 16 15 14 13 14 14 14 13 13 13 13 12 12 12 11 11 11 11 12 11 11 10 10 10 9 9 9 9 9 9 9 9 8 9 8 8 8 8 8 7 7 7 7 7 7 6 6 7 8 7 6 5 5 6 5 6 6 6 4 5 5 4 4 8 2 1 2 3 4 6 5 3 2 3 4
16 16 16 16 16 16 16 16 16 16 15 14 14 14 14 14 14 13 12 13 13 13 13 13 12 11 12 12 12 12 12 11 10 10 10 10 10 10 10 10 10 9 9 9 8 8 9 8 8 8 8 8 8 7 7 7 6 7 7 6 6 6 6 5 5 5 5 4 5 6 4 5 4 5 3 2 3 2 2 2 5 7 3 3 2
16 16 15 16 16 15 14 13 13 14 14 14 14 14 14 14 14 13 12 13 12 13 13 13 13 12 12 12 12 11 12 12 10 10 10 11 10 11 11 11 10 10 9 9 8 8 8 8 8 8 9 12 13 11 9 9 6 7 7 6 6 6 6 5 6 5 5 4 6 4 5 7 7 7 8 4 3 5 2 0 3 3 2 3 4
15 16 16 16 15 14 14 13 13 13 14 14 15 15 14 14 14 14 14 14 13 12 12 13 13 13 13 13 12 11 11 10 13 18 16 12 11 10 10 10 10 10 10 9 9 9 9 9 9 13 15 15 14 14 14 14 13 10 8 7 7 7 7 6 6 6 5 5 6 5 6 8 8 6 6 4 0 1 2 1 2 3 3 2 1
15 15 16 15 14 13 13 14 13 14 15 14 14 15 15 14 13 14 14 13 14 13 12 13 13 13 14 13 13 12 11 11 18 18 19 19 13 11 11 10 10 10 10 10 10 10 9 10 9 11 12 13 12 15 15 16 15 16 16 14 11 9 7 7 7 6 5 6 5 4 6 8 10 6 5 4 0 1 2 1 1 1 2 4 7
14 14 14 13 13 14 15 15 15 15 15 15 15 15 14 14 14 13 13 14 13 12 13 14 13 13 13 13 14 13 12 15 18 19 19 20 17 12 10 10 10 10 10 11 10 10 10 9 9 8 8 9 9 9 12 15 16 16 16 15 15 15 13 10 8 6 5 6 6 7 5 8 10 6 6 3 2 1 1 2 1 1 2 2 2
12 12 12 13 15 16 16 17 17 16 16 16 15 14 14 15 15 14 15 14 12 13 14 14 14 13 13 14 14 14 13 16 17 19 19 20 20 16 10 10 10 10 11 11 11 11 10 9 9 8 8 13 11 9 8 9 13 16 16 15 14 13 13 14 12 10 7 6 7 8 7 6 8 7 2 1 1 0 2 1 2 1 1 2 4
13 13 12 12 13 13 12 13 15 15 15 15 14 14 15 16 15 14 13 12 13 13 14 15 14 14 14 14 13 13 14 16 18 19 19 20 19 17 12 11 10 10 11 11 11 11 11 10 10 10 9 9 9 9 8 8 8 8 8 8 9 11 13 13 13 13 7 7 7 9 7 5 9 7 4 1 2 4 2 4 2 3 3 4 3
11 12 13 13 12 11 11 12 14 14 15 15 14 15 16 15 15 14 13 13 13 14 14 15 14 14 14 13 12 13 13 18 18 19 19 19 20 17 13 11 9 10 10 10 11 12 11 11 11 11 10 10 9 10 9 9 8 8 8 8 9 9 9 9 8 8 8 7 7 9 8 5 7 7 6 1 2 4 4 5 5 3 2 0 0
12 13 14 15 14 14 15 15 14 14 15 15 16 16 16 16 15 14 13 12 12 12 12 12 14 14 14 14 13 14 14 18 18 19 20 19 20 12 11 11 10 10 10 10 11 11 11 11 11 11 11 10 13 16 14 9 8 9 9 8 8 7 8 10 12 10 10 10 10 10 9 9 9 8 2 0 2 3 4 3 3 3 1 1 2
14 14 15 16 16 16 15 15 15 15 15 16 17 17 16 15 14 12 13 13 12 13 13 13 12 13 14 14 14 14 13 15 19 20 20 21 15 10 11 10 10 11 12 11 11 11 11 11 11 11 11 11 13 15 15 13 8 9 9 9 8 7 9 8 8 11 12 13 14 14 14 13 13 11 5 7 6 6 5 3 5 3 2 4 2
10 13 15 15 15 15 15 14 14 14 13 16 16 15 14 13 14 13 14 14 14 13 12 11 12 12 14 14 14 14 13 14 19 20 21 21 17 13 11 11 11 12 12 12 10 10 11 16 15 12 12 13 15 15 16 12 9 9 8 8 8 8 9 7 4 6 13 14 14 14 11 10 11 11 7 7 10 9 7 8 4 5 5 4 4
13 13 12 11 12 13 13 14 14 15 15 16 15 15 15 15 13 12 13 13 13 12 11 11 12 11 13 14 16 16 13 13 18 20 22 20 17 12 11 10 11 12 11 12 11 10 11 13 19 17 14 16 17 16 17 14 11 12 11 9 10 10 12 7 6 5 4 4 5 6 6 9 8 7 7 9 11 10 8 7 5 5 6 5 3
14 14 13 13 13 13 12 13 13 14 15 14 13 14 12 11 12 13 13 12 12 11 11 11 13 12 12 12 12 14 14 11 13 20 21 20 21 15 10 10 12 13 12 12 11 10 11 10 13 18 20 19 18 17 17 17 13 12 9 9 10 13 10 6 7 7 5 6 5 5 5 3 4 5 5 6 6 7 7 6 6 6 6 5 5
14 13 13 14 13 13 12 13 15 15 14 13 13 11 11 12 12 12 13 12 12 11 12 12 12 12 11 11 12 12 13 13 11 19 20 21 22 19 12 12 13 12 12 12 11 11 10 10 10 14 18 19 19 19 18 17 16 12 11 11 12 14 6 5 7 9 6 5 4 3 4 4 5 5 5 6 7 6 6 6 5 5 6 6 7
9 11 11 12 13 13 14 14 14 13 13 12 11 12 12 12 12 13 11 12 13 13 12 11 11 11 10 11 12 13 13 17 11 16 21 22 22 23 15 14 15 13 13 12 11 10 11 10 11 14 18 18 18 17 16 15 17 11 13 16 16 14 8 6 5 5 5 5 5 5 5 5 5 5 5 6 6 6 6 6 5 6 7 7 8
8 9 11 12 13 13 13 15 14 11 11 12 13 14 12 12 12 11 12 12 12 13 13 11 11 10 10 10 11 12 12 12 16 13 19 22 23 23 24 19 19 15 13 13 13 12 11 11 12 17 18 18 17 16 15 15 10 11 18 16 13 12 8 6 5 5 5 5 5 5 5 6 6 6 6 5 5 6 6 6 6 6 5 4 3
6 8 10 12 13 13 13 14 15 13 13 13 13 13 13 12 12 11 12 12 11 12 11 11 11 11 11 11 10 11 11 11 13 18 16 22 22 24 24 25 20 15 14 12 12 11 11 11 12 17 18 17 17 16 16 14 12 16 15 15 11 6 5 6 6 5 5 6 6 6 6 6 6 5 5 5 5 7 6 5 5 5 4 4 4
8 8 9 11 12 12 12 12 13 14 14 14 13 13 13 13 12 11 11 11 12 12 12 11 12 12 11 11 11 11 11 11 10 14 20 20 23 23 24 25 24 19 14 13 12 11 13 17 17 17 16 16 16 15 12 13 16 15 15 13 10 5 6 6 6 5 6 7 7 7 7 7 6 5 4 3 3 2 3 3 3 4 4 4 4
10 11 11 10 12 13 13 13 13 14 14 13 14 13 14 14 13 12 11 12 12 12 12 12 12 12 12 12 12 12 10 10 11 10 12 15 17 22 24 24 24 22 19 16 18 19 18 16 16 16 13 11 9 7 8 10 14 16 16 10 5 6 5 5 5 6 7 7 8 8 7 4 3 3 2 2 4 5 6 6 5 3 3 4 3
11 11 12 11 11 11 14 12 12 12 13 12 12 12 12 12 13 12 13 13 13 13 13 13 13 13 14 13 12 10 10 10 11 10 9 10 10 12 12 13 16 16 14 14 14 12 12 11 8 8 8 11 12 11 10 10 8 7 5 5 6 6 7 7 8 9 8 8 7 7 4 2 2 4 4 5 5 5 5 7 6 5 4 4 4
10 11 13 12 11 10 12 16 16 11 12 13 12 11 12 13 13 14 14 14 14 13 13 13 14 14 14 12 10 9 11 11 12 13 11 11 11 10 10 10 11 11 13 13 13 11 6 1 2 3 5 6 7 6 6 6 7 6 5 5 6 6 8 10 8 5 6 6 5 2 2 3 4 5 4 4 4 4 5 5 5 5 5 5 4
12 12 11 10 11 10 11 11 12 12 12 13 13 14 15 13 13 14 15 14 15 16 15 15 14 13 12 12 12 12 12 13 15 16 15 15 14 11 10 12 12 11 15 18 12 6 3 4 5 6 6 8 8 8 7 6 6 5 5 5 5 6 6 6 8 8 7 5 6 6 6 3 2 3 4 5 4 5 3 4 3 5 3 2 5
13 11 9 10 11 10 9 10 11 12 12 12 12 5 5 3 13 15 14 18 22 21 17 15 14 12 12 12 13 14 15 16 15 15 17 16 18 20 20 19 17 15 16 16 11 8 9 9 9 10 9 8 9 8 8 7 6 6 6 5 6 6 7 6 5 4 4 7 7 4 3 4 5 5 6 6 5 5 5 5 5 5 5 4 6
11 11 10 9 10 10 9 10 10 11 12 12 11 10 7 2 6 0 6 13 18 18 18 18 17 17 14 12 13 18 18 14 10 14 15 16 18 19 19 17 17 18 15 8 6 10 10 10 11 11 11 10 11 11 9 8 7 7 7 7 6 5 6 6 1 3 5 1 1 3 5 6 7 7 7 7 7 6 5 4 5 6 6 6 6
12 10 10 10 11 10 10 10 10 11 10 10 10 11 11 10 5 4 7 1 10 17 18 18 17 17 19 17 13 10 14 15 13 14 16 18 18 18 18 17 17 18 16 17 12 11 11 12 12 12 12 12 12 10 8 8 7 8 7 7 6 8 7 12 8 2 2 6 7 7 8 9 9 9 8 7 6 5 5 5 5 5 5 4 5
12 11 9 8 10 11 10 8 9 9 9 10 10 12 13 14 14 10 1 9 7 3 11 13 14 16 19 19 20 17 14 13 15 13 15 17 17 18 18 19 16 11 11 7 11 11 11 12 13 12 12 12 11 10 9 8 8 7 5 5 9 8 10 12 6 8 8 9 10 11 10 9 9 8 7 6 6 6 5 5 5 4 5 5 3
11 9 8 7 5 8 7 8 9 10 12 13 14 15 15 14 14 12 9 5 2 6 8 4 3 8 8 10 14 15 13 13 15 15 15 16 17 19 16 7 7 13 15 12 12 13 12 11 11 11 12 11 11 9 8 6 5 6 3 4 10 10 14 3 7 9 10 10 9 3 3 6 8 7 6 6 6 6 6 6 5 5 5 6 6
8 10 16 10 4 6 7 7 8 11 11 11 10 12 12 12 12 12 13 13 12 11 10 6 3 3 6 5 5 8 12 12 15 16 16 17 16 13 15 8 5 4 8 10 9 9 9 10 11 13 13 12 10 6 3 8 6 5 8 9 9 10 7 8 10 10 7 6 4 4 3 2 4 5 6 6 6 7 7 7 6 7 7 6 6
8 7 7 9 7 4 5 7 8 6 2 4 9 12 13 12 11 10 10 10 11 11 7 4 4 3 7 7 4 1 6 10 15 17 18 15 15 19 10 8 8 9 11 11 10 11 11 11 10 10 8 3 6 9 6 5 9 9 10 8 8 10 10 9 8 8 7 7 7 7 6 5 5 5 4 5 6 7 7 7 7 6 7 7 6
7 7 7 7 5 2 4 5 6 4 6 7 9 9 6 2 3 7 8 10 9 8 8 6 5 4 5 4 5 7 6 2 1 3 4 9 18 15 11 12 12 11 11 9 5 1 4 7 6 6 0 8 3 4 7 9 8 11 12 9 10 10 8 7 7 7 7 7 7 7 7 7 7 6 6 5 5 5 5 5 6 6 7 7 5
8 7 7 7 6 3 4 3 6 5 2 3 4 3 1 2 2 4 7 8 9 9 7 5 5 9 10 6 6 5 6 9 13 11 9 8 7 8 8 7 9 10 10 6 9 5 9 10 7 4 5 6 8 8 7 8 10 10 9 8 7 7 10 8 6 6 7 6 6 6 6 6 6 6 6 6 6 6 5 6 7 7 6 5 4
9 11 12 10 6 6 7 9 8 7 7 7 8 10 11 11 10 8 8 7 7 7 7 8 8 8 8 8 8 8 10 5 5 5 5 4 6 6 5 6 6 6 8 6 7 10 7 2 1 3 5 7 6 5 6 6 5 5 5 5 5 5 7 6 6 5 6 6 5 3 4 5 5 6 6 6 6 5 5 5 6 6 6 5 5
10 9 9 11 5 8 9 10 8 8 6 6 8 6 6 7 8 9 9 9 8 7 7 7 7 2 2 8 11 9 7 6 5 4 5 5 4 3 2 3 3 6 10 10 3 3 4 3 2 3 4 6 6 6 5 6 5 5 5 5 7 7 6 6 6 6 6 4 5 5 6 6 5 4 4 5 6 6 6 6 6 6 6 5 4
10 10 10 8 6 5 9 9 9 12 12 13 13 12 11 10 8 6 5 6 6 6 5 4 3 3 3 3 12 13 11 8 7 6 5 6 5 6 6 6 5 6 5 5 4 5 6 6 5 5 5 4 3 6 7 7 7 7 7 7 8 7 7 6 4 3 2 3 4 5 4 3 4 5 4 2 3 5 4 5 5 5 5 3 3
10 10 10 9 9 5 3 7 9 10 8 8 9 10 9 9 9 8 6 6 7 7 7 6 5 4 1 11 18 22 14 9 8 8 7 7 8 8 9 9 9 8 9 8 7 7 6 8 7 7 7 8 7 7 6 6 6 7 7 7 7 7 7 6 5 5 4 5 5 4 3 4 4 4 5 4 5 5 5 5 5 5 5 4 4
11 10 9 9 8 7 7 5 3 3 7 8 6 5 7 8 9 10 10 9 9 10 10 10 8 7 7 9 17 19 13 11 10 10 9 9 9 10 10 10 9 9 10 9 8 8 8 9 9 10 9 8 8 7 7 8 7 7 8 8 8 8 8 7 6 6 5 6 6 5 6 5 6 6 6 6 6 6 5 6 6 6 5 5 5
10 10 10 9 8 8 8 7 6 7 8 9 8 7 7 9 11 12 12 11 11 11 11 11 11 11 10 10 13 13 13 12 11 10 10 10 10 10 10 9 9 10 10 10 9 9 9 10 10 10 9 9 9 9 10 10 10 10 9 8 8 8 7 7 6 6 5 5 6 6 6 6 6 6 6 5 6 6 6 6 6 5 5 5 5
10 11 11 10 10 9 9 8 8 8 11 11 9 9 9 8 9 10 11 10 9 9 8 8 8 8 8 7 10 13 13 12 12 11 11 11 11 10 10 10 10 11 11 11 10 10 11 10 10 11 12 11 10 11 10 10 10 10 8 8 8 9 8 6 5 5 5 6 6 6 6 7 7 6 6 5 6 6 6 5 5 5 5 5 5
10 10 11 11 10 10 9 9 9 9 9 10 10 9 9 8 9 11 11 10 9 10 10 10 9 10 9 9 9 12 13 13 13 11 11 11 11 11 10 11 11 11 11 10 10 12 11 11 11 11 11 11 11 10 8 9 8 7 8 8 7 6 5 4 3 4 5 6 6 6 7 7 7 7 7 6 6 6 6 5 6 5 5 4 4
12 11 11 10 9 9 10 9 10 10 10 10 11 11 10 10 11 13 13 14 12 10 11 11 11 11 11 11 11 12 12 12 12 12 12 12 11 11 11 11 12 12 12 11 12 12 12 11 10 10 9 9 9 9 8 7 8 8 8 7 7 6 4 3 3 4 4 4 5 6 7 7 7 7 8 8 7 7 7 6 6 5 5 4 4
11 11 11 9 9 10 11 10 11 11 10 11 10 11 11 11 12 13 12 13 14 13 12 12 11 11 13 12 12 12 12 12 11 11 11 10 10 10 12 12 11 11 11 12 12 10 10 10 10 10 10 10 10 9 8 9 8 8 8 7 7 5 4 4 4 5 5 6 7 8 8 9 8 8 7 7 7 6 7 6 6 5 5 4 4
11 10 9 9 9 10 11 11 10 10 10 10 11 12 10 10 11 11 12 12 12 12 12 12 11 11 11 12 12 13 13 12 11 11 11 11 11 11 11 12 13 12 12 12 10 11 10 10 10 10 9 9 8 8 7 7 6 5 7 8 8 11 13 12 8 8 9 9 9 9 9 9 9 9 8 7 7 6 6 5 6 5 5 5 6
11 9 8 9 9 10 9 10 11 10 11 11 11 11 11 11 11 11 12 13 13 12 12 12 11 10 10 11 12 12 12 12 11 11 10 10 10 11 11 12 12 11 11 10 10 10 10 11 12 12 11 10 10 9 8 8 6 6 7 9 15 17 16 17 16 14 10 7 9 8 8 8 8 8 7 7 6 7 7 6 6 6 6 6 6
11 11 10 10 10 10 10 10 10 10 11 12 12 11 11 11 11 11 11 11 12 13 13 12 11 11 11 11 12 13 13 12 11 11 11 11 10 11 10 11 11 11 11 11 11 10 10 10 10 10 10 10 10 10 10 10 10 9 12 17 17 18 18 15 13 15 15 11 8 9 9 9 9 8 8 7 7 8 8 8 7 6 6 5 5
Wind_Direction
188 191 191 198 197 197 197 196 197 196 193 194 196 200 200 198 198 197 186 191 190 193 197 195 191 200 202 204 205 203 203 206 203 197 197 204 209 212 211 204 209 222 222 235 234 216 213 219 232 236 228 219 233 211 203 194 198 212 203 170 187 180 163 175 207 262 288 234 239 248 276 284 305 238 266 283 297 301 304 267 263 265 269 271 271
189 188 190 195 200 201 200 197 197 196 197 196 199 200 200 201 200 195 194 200 193 198 201 206 199 194 200 204 205 206 204 205 204 198 203 205 209 206 212 208 212 218 214 226 227 224 217 226 241 238 225 211 206 202 191 199 198 210 231 206 205 203 202 172 218 223 269 307 300 287 275 199 254 244 251 284 291 303 308 301 277 253 265 267 269
189 187 188 192 199 202 201 201 198 198 200 200 202 200 201 202 198 196 199 199 199 200 202 205 204 196 200 203 205 206 204 205 203 201 207 207 207 210 208 206 209 212 213 221 223 219 221 225 237 239 227 224 224 220 202 196 196 202 220 216 221 223 204 204 193 229 251 273 264 291 275 288 231 273 273 260 274 292 301 294 294 291 274 272 278
189 188 189 192 194 196 201 205 203 202 203 204 205 205 202 202 199 200 201 199 198 203 203 204 204 201 201 203 204 206 205 205 204 205 207 206 210 212 210 208 211 212 212 215 219 217 221 222 232 230 227 224 228 227 225 217 202 204 213 220 219 230 223 205 212 218 230 253 278 216 261 258 276 266 272 277 281 289 275 291 294 290 292 291 277
190 191 192 194 192 194 198 200 204 207 208 207 207 207 206 204 201 202 201 202 202 201 205 202 205 204 206 205 204 207 207 205 205 208 209 207 209 210 212 214 216 218 217 215 213 214 219 220 225 217 212 220 231 227 225 224 230 218 221 223 214 226 233 217 221 214 231 245 265 259 255 263 259 279 277 293 303 292 300 293 291 292 295 292 307
189 190 193 196 197 197 198 197 202 206 209 209 209 207 208 208 206 205 203 203 202 204 204 203 200 204 208 210 208 208 209 208 209 210 209 208 209 211 213 216 220 221 223 220 215 212 217 221 223 210 205 211 224 225 222 225 230 232 234 230 221 218 224 235 229 226 224 243 249 286 296 268 302 273 263 256 288 306 311 305 305 293 324 342 331
189 190 191 196 198 202 201 201 200 204 206 211 211 209 209 210 210 209 206 206 203 203 205 207 208 203 207 209 211 211 211 210 212 213 212 208 207 210 215 219 222 222 225 225 222 216 216 219 220 212 209 212 218 219 220 227 226 234 231 234 227 206 213 222 224 230 228 240 257 240 263 270 241 283 286 196 247 246 286 322 314 306 40 55 358
189 190 191 195 200 202 204 202 203 202 204 207 211 212 211 211 212 212 209 209 209 206 204 205 208 206 207 208 210 210 212 212 212 212 212 209 207 211 213 217 220 225 227 228 227 225 221 219 217 215 214 215 214 221 211 220 223 234 236 231 236 233 235 228 220 218 231 240 246 269 267 279 288 259 289 0 332 329 229 241 296 308 341 347 313
188 191 192 197 200 201 201 202 204 205 204 204 209 212 213 212 211 211 210 212 212 212 209 205 205 208 210 209 210 209 211 213 212 211 212 213 210 211 212 215 217 222 228 230 228 229 230 227 224 219 215 218 216 217 216 212 207 224 238 226 234 234 240 241 232 231 239 236 268 272 279 285 272 286 297 290 270 268 264 172 272 275 331 354 306
188 191 195 198 199 199 199 200 201 202 203 206 207 209 213 213 212 211 212 212 213 212 212 209 206 206 209 211 211 209 212 213 214 211 209 208 209 212 211 214 215 218 222 227 232 230 232 231 232 225 222 221 220 222 223 223 220 217 224 215 224 225 234 240 242 237 235 241 243 247 268 270 273 263 270 276 154 276 327 348 268 298 337 310 251
189 191 197 196 196 196 198 201 200 201 203 205 206 207 210 212 213 213 213 212 212 212 211 211 211 208 209 210 211 212 212 213 211 209 210 210 207 209 209 212 212 216 218 220 226 228 232 233 237 238 234 229 226 221 222 224 227 230 230 224 213 205 218 229 242 238 235 240 242 234 243 268 273 266 265 288 70 229 238 187 218 358 39 3 334
189 193 195 194 193 196 199 199 200 202 201 204 205 205 206 210 213 213 213 213 212 210 211 212 212 211 210 211 212 213 214 214 208 207 209 210 209 209 210 210 210 213 215 218 224 226 229 230 232 234 234 231 229 228 224 226 228 232 234 234 229 221 212 207 223 236 228 239 249 242 239 253 271 281 282 308 293 109 124 141 218 304 336 339 245
192 192 192 191 197 199 198 197 199 199 201 202 203 203 204 208 211 212 213 212 210 210 212 210 212 212 211 211 213 212 216 215 209 206 208 209 210 211 213 212 211 213 214 217 222 224 226 228 232 231 233 231 231 228 227 232 233 234 238 241 245 242 239 231 219 216 213 219 229 250 231 246 268 271 236 216 135 112 156 253 244 237 202 237 245
194 196 195 196 196 195 197 202 203 203 200 200 201 202 204 207 210 212 213 211 212 213 212 213 212 211 212 211 212 213 215 215 207 206 206 207 209 209 219 214 215 217 216 218 221 223 223 223 226 233 232 233 232 230 228 232 237 240 240 239 240 244 239 235 241 245 241 221 217 238 241 192 248 266 257 176 293 275 277 271 237 259 224 224 200
193 193 196 197 194 192 194 204 208 204 200 199 199 202 204 207 208 209 210 211 211 212 212 213 213 212 212 212 213 215 217 212 204 204 205 205 207 204 217 217 217 221 223 222 222 223 223 222 224 229 230 228 227 226 227 231 233 237 243 245 240 240 235 230 221 218 221 230 230 235 248 223 239 258 271 228 203 211 211 232 233 205 187 172 298
196 194 200 202 201 199 198 203 205 203 201 199 200 203 204 204 205 205 208 212 213 214 216 216 215 213 211 210 211 217 218 207 201 202 203 205 204 204 214 218 219 221 225 227 227 226 225 223 224 229 230 229 229 224 224 222 224 231 234 240 246 246 244 234 223 212 212 219 228 235 241 247 246 252 270 115 169 165 146 124 99 96 110 296 238
200 201 205 206 207 207 205 203 205 204 201 200 202 203 203 203 205 201 207 211 212 213 214 213 214 212 211 211 212 216 219 205 198 200 202 204 198 207 212 218 223 225 228 226 227 228 227 224 224 228 230 231 229 220 223 216 216 222 227 234 238 242 252 249 223 215 220 223 227 233 241 249 262 276 262 219 190 171 142 174 227 171 217 276 288
233 212 210 209 207 210 210 206 206 206 204 206 207 206 203 202 202 197 204 207 212 214 212 214 215 214 211 212 211 214 218 205 196 200 201 201 194 202 208 213 223 227 233 232 229 231 230 226 221 225 229 233 227 216 219 210 222 224 223 228 237 243 251 245 226 208 212 222 230 238 247 260 266 274 268 213 189 171 171 218 213 159 221 222 241
233 230 226 221 215 212 210 207 207 206 208 209 206 205 203 203 199 196 204 207 212 209 208 213 215 214 214 212 211 212 218 209 196 201 202 198 195 206 205 211 220 227 230 235 232 230 234 234 230 226 227 232 229 219 218 210 222 228 228 227 234 239 243 232 215 216 188 201 238 236 250 243 241 238 238 216 195 195 193 209 174 182 223 215 191
227 228 223 218 218 215 210 205 208 210 213 210 207 207 203 199 200 200 202 205 207 207 207 210 213 215 212 211 211 212 216 215 196 203 201 198 195 200 206 207 219 225 227 230 233 231 232 235 235 233 231 232 228 222 220 210 217 228 223 223 229 237 237 216 214 207 211 205 221 204 223 208 200 210 214 207 211 209 204 206 198 189 201 185 180
232 227 224 223 218 215 213 208 207 211 211 207 205 204 199 202 201 201 202 203 204 207 209 208 212 215 211 211 212 211 214 215 200 196 202 198 199 200 207 210 216 220 224 228 230 230 230 230 233 230 228 231 230 226 222 214 215 224 222 224 221 233 215 187 215 205 196 197 192 177 173 170 199 204 200 201 206 213 217 218 202 187 177 178 181
245 242 235 229 224 217 213 211 212 212 208 200 197 202 203 201 201 202 202 201 203 207 207 207 210 213 212 210 214 213 212 210 203 197 199 200 199 201 206 213 212 215 222 228 229 231 230 229 231 229 225 226 227 226 224 220 218 220 232 228 229 231 224 208 194 192 187 161 147 151 170 178 199 211 206 200 199 204 211 213 202 197 197 188 178
257 253 242 235 228 222 214 210 211 212 208 202 199 201 198 198 199 198 199 201 205 207 207 207 208 211 212 212 213 214 212 209 201 195 201 201 201 202 209 213 213 215 218 225 225 228 227 230 234 235 231 229 230 228 226 224 217 224 235 241 240 237 232 223 209 192 181 170 161 173 193 201 205 219 217 209 203 199 209 206 200 197 199 194 185
256 248 251 249 238 228 220 212 211 211 207 201 201 200 196 196 196 195 195 198 202 206 208 206 208 211 212 214 214 213 210 207 202 197 195 201 203 203 210 219 217 213 217 226 228 227 229 229 232 234 232 232 231 229 228 220 219 227 230 236 240 237 227 228 221 205 178 174 183 194 212 216 210 218 220 209 195 198 205 191 179 178 171 193 210
284 275 261 256 250 240 225 217 212 209 206 199 199 200 198 191 194 195 192 198 201 205 207 204 207 211 212 214 215 213 208 206 205 202 199 197 202 204 209 214 221 218 219 230 232 229 229 230 232 234 234 232 230 231 235 233 230 234 234 232 224 219 222 218 214 186 187 198 206 215 226 220 213 212 206 192 176 124 124 116 142 163 181 184 201
293 289 285 266 253 245 235 224 215 210 205 201 201 198 196 191 193 191 192 198 201 204 204 203 208 210 214 215 215 212 206 204 208 200 203 203 204 208 208 211 217 218 220 227 227 230 230 232 234 237 238 235 233 230 233 232 229 228 234 228 208 216 210 206 199 195 212 213 217 224 228 221 218 231 187 134 123 144 145 142 142 149 137 132 110
287 289 288 283 259 238 230 227 217 210 205 203 201 197 195 193 192 191 192 196 199 203 202 202 208 209 214 216 214 210 207 207 210 207 190 196 205 210 213 224 228 228 231 239 244 243 245 239 239 238 230 224 223 229 229 235 240 244 212 195 198 203 202 197 200 205 214 217 223 228 227 207 106 120 152 147 136 151 152 138 136 152 146 157 134
291 290 290 290 273 240 228 218 212 208 204 199 197 197 195 193 193 195 196 196 197 201 202 205 208 209 215 215 211 210 212 211 211 211 200 196 203 195 194 202 205 205 218 228 230 233 238 266 299 270 232 246 238 237 228 222 221 216 199 182 194 202 211 216 219 227 227 220 225 170 129 147 181 173 127 123 138 156 157 148 151 160 167 146 114
296 290 290 290 276 246 226 216 207 206 202 200 200 194 189 190 198 203 203 197 197 197 201 205 206 209 210 207 207 213 214 215 217 208 205 195 192 192 194 205 207 209 215 215 217 209 181 203 232 226 221 223 225 223 215 208 207 195 180 172 182 186 192 186 206 213 219 207 215 213 209 182 129 83 109 129 157 171 189 159 165 146 176 135 159
298 294 297 293 284 256 228 218 206 203 199 196 193 172 0 212 201 198 199 202 202 203 195 200 200 201 206 211 207 209 214 219 219 201 207 196 195 195 201 202 203 208 216 207 199 211 215 225 226 226 225 220 221 216 209 191 180 170 184 174 171 184 192 200 215 241 215 210 211 193 162 143 135 148 154 165 169 185 186 163 174 169 156 160 160
297 298 300 299 285 262 237 219 210 202 200 193 184 176 169 86 29 212 215 199 197 200 198 203 199 197 199 212 214 218 226 229 208 196 204 202 200 203 209 206 201 210 202 145 191 211 219 220 226 227 229 228 227 225 209 191 179 173 176 180 171 140 65 28 326 210 210 174 60 140 158 169 167 166 172 179 180 187 184 192 167 173 167 164 153
299 298 301 303 293 262 235 222 208 201 198 185 169 173 176 178 215 1 27 225 204 196 197 199 200 199 203 207 207 218 221 220 207 193 195 199 201 204 206 206 206 205 199 177 197 210 215 220 223 225 225 227 229 224 209 196 182 175 173 156 121 94 174 218 207 128 116 160 178 182 180 178 174 180 182 181 180 181 174 180 176 169 162 160 167
295 295 296 308 318 279 235 216 199 186 169 159 168 180 185 192 191 194 28 35 53 170 202 207 213 213 207 208 208 208 205 205 205 197 195 195 195 199 202 205 208 190 134 173 214 217 218 220 224 226 225 228 226 220 210 197 187 167 135 129 127 168 220 216 160 179 188 189 185 201 187 175 170 170 175 166 159 170 177 187 193 178 163 160 182
287 288 287 302 321 319 280 202 181 183 178 180 183 185 192 192 194 185 168 167 96 37 40 60 208 223 242 236 232 230 227 207 193 193 192 195 193 200 193 170 129 166 186 204 204 216 216 220 226 231 231 229 227 218 211 187 103 90 133 162 157 190 233 185 157 197 198 194 198 197 168 177 168 162 167 166 167 162 172 189 173 161 176 179 181
295 294 294 296 315 298 295 281 216 183 185 188 187 189 190 190 191 185 186 188 190 186 194 186 73 85 195 218 237 235 223 216 200 196 193 195 192 150 119 125 139 203 227 233 223 222 222 222 225 226 227 225 224 205 89 73 102 165 200 194 176 186 201 153 180 194 188 168 152 162 207 206 183 168 162 165 160 171 184 182 184 180 178 194 191
299 294 277 273 263 264 327 331 344 348 321 229 202 195 189 187 188 189 189 190 188 194 191 159 137 84 98 77 74 301 256 225 213 203 200 187 150 143 162 189 192 207 213 211 207 213 217 225 230 239 240 269 51 56 87 157 179 171 212 205 179 187 179 173 174 174 158 165 171 173 169 193 192 173 168 170 181 188 188 187 181 182 180 188 190
305 297 291 274 272 27 59 35 348 29 66 48 12 346 331 310 179 164 180 186 186 184 170 155 134 103 80 75 82 67 65 96 200 210 195 167 170 175 197 188 197 198 211 212 197 309 319 276 258 253 189 80 78 185 192 205 171 174 199 190 181 175 176 170 171 163 160 168 182 179 174 173 179 175 169 182 205 204 197 184 175 182 187 188 169
308 300 293 277 254 169 86 57 288 295 281 154 158 156 124 18 308 212 176 174 177 172 158 131 178 176 179 164 142 135 101 95 90 77 84 105 149 215 224 216 204 194 187 108 96 140 219 244 257 233 119 138 209 213 179 174 181 179 174 176 160 157 152 150 145 148 158 171 180 185 170 164 166 177 177 178 181 183 176 175 169 180 196 180 164
322 306 297 288 222 188 167 165 191 217 259 260 221 193 190 187 177 179 181 177 162 139 148 165 174 181 174 149 127 131 119 128 158 169 148 169 180 201 223 195 187 179 156 166 172 195 197 246 334 71 126 153 172 169 179 158 153 144 146 128 118 109 127 131 149 160 168 177 176 174 162 155 168 171 176 163 165 176 177 171 173 173 173 172 192
325 319 307 306 238 195 195 210 183 156 165 228 252 236 217 197 193 185 178 170 163 155 156 172 192 232 180 160 141 141 126 122 112 123 127 119 111 70 71 98 113 130 143 191 193 137 104 76 56 73 104 121 131 131 126 131 135 131 120 112 111 114 118 143 163 158 157 149 163 174 183 176 165 157 164 162 163 175 173 171 174 167 165 170 182
330 322 318 311 299 221 193 197 193 200 202 197 195 194 199 191 183 178 160 151 139 129 117 93 59 29 298 191 125 118 114 115 111 93 87 90 81 71 64 61 65 76 92 108 94 87 87 82 60 59 46 44 77 110 120 113 109 104 106 112 117 126 134 135 127 124 130 147 151 154 177 148 158 155 155 138 126 138 138 130 137 144 148 144 149
338 336 332 330 327 318 253 213 214 208 206 197 197 195 188 173 157 143 126 115 109 108 99 80 59 48 107 123 111 108 105 106 102 101 90 81 75 69 66 62 55 60 66 65 65 72 68 69 60 52 47 37 25 18 33 61 80 95 98 95 95 89 81 78 84 104 113 113 107 117 123 114 113 96 101 105 95 94 87 87 93 95 93 90 88
344 341 341 338 350 5 21 13 345 202 178 183 180 143 133 131 129 125 120 119 122 124 119 116 114 107 90 89 97 94 95 95 93 88 84 80 77 73 69 65 65 63 65 64 63 66 74 75 70 59 52 45 33 28 33 36 39 64 82 90 84 83 82 77 65 56 63 87 97 103 105 100 91 88 86 85 87 85 86 87 79 76 78 75 76
350 350 347 351 355 8 17 21 38 64 69 76 83 90 106 121 126 125 124 127 131 129 128 129 130 119 116 97 89 88 90 89 88 85 81 77 75 72 70 68 68 66 64 63 61 63 68 68 65 64 58 54 47 47 49 46 44 45 39 59 76 65 58 54 56 61 65 83 86 88 87 86 83 86 83 79 82 87 77 76 75 75 77 80 77
8 359 355 358 5 15 24 29 35 58 78 79 77 85 90 98 111 111 110 112 111 106 103 99 90 90 88 85 93 98 97 93 89 88 83 84 81 77 76 73 71 71 70 67 64 66 67 67 67 67 64 55 54 53 51 51 52 53 41 31 38 53 50 42 17 1 27 68 76 79 79 81 82 81 81 77 80 86 79 76 83 81 71 63 67
16 6 7 3 5 10 25 34 37 42 59 77 84 76 74 75 82 90 95 93 89 92 88 84 83 79 75 74 75 80 86 89 86 82 82 80 80 78 78 78 76 73 70 67 64 64 65 65 66 63 60 58 55 53 46 44 47 49 51 53 50 34 17 24 9 26 43 58 69 79 79 77 72 76 76 80 76 75 78 67 61 60 64 62 60
25 15 12 8 4 7 20 29 46 48 55 60 67 72 70 69 75 78 77 81 79 74 78 81 81 82 80 76 72 70 71 73 79 82 84 85 82 81 78 78 79 77 74 72 69 68 65 58 54 58 57 51 48 43 40 40 46 46 44 50 51 38 6 335 357 34 57 55 65 75 76 77 70 61 60 61 63 62 62 57 52 49 42 41 31
27 26 12 5 11 23 22 21 37 48 56 59 65 69 76 83 86 86 87 85 82 79 76 72 70 75 80 80 80 79 80 79 79 81 80 79 81 82 83 80 77 80 78 73 69 63 59 60 59 60 62 57 53 48 40 38 38 38 30 35 41 41 23 14 37 44 48 61 65 68 72 73 69 64 60 61 58 53 53 39 33 30 26 16 13
41 35 17 12 11 30 36 24 23 37 42 55 64 68 66 67 70 80 85 84 83 83 82 82 80 79 79 81 84 83 84 86 85 81 78 81 83 82 81 80 80 76 73 70 63 63 63 58 58 59 58 56 55 55 47 30 15 9 23 30 47 60 63 55 51 48 57 62 66 70 71 71 71 67 63 61 59 59 59 49 42 35 28 33 37
49 41 24 19 25 25 30 48 33 28 43 43 49 58 62 71 72 72 81 87 87 82 80 80 79 77 81 83 84 84 82 80 77 76 74 72 70 71 73 74 73 71 74 76 75 73 73 72 71 69 66 60 52 47 49 49 29 15 332 36 50 49 50 52 53 53 60 63 63 67 69 71 71 69 65 63 60 58 54 49 45 43 43 41 39
50 51 38 31 30 31 33 34 46 41 43 53 50 46 51 53 57 64 69 75 85 91 89 84 86 85 82 80 79 79 78 76 73 75 75 72 72 74 73 73 71 71 70 69 69 66 62 59 58 60 61 62 58 51 44 46 46 41 42 47 50 53 52 53 52 48 53 56 61 61 64 63 62 58 52 47 46 49 46 48 45 44 41 39 33